Flag for Norway Weather past 2 weeks in Knarvik, Norway

Now
60 °F

Cool.


Feels Like: 60 °F
Forecast: 57 / 71 °F
Wind: 8 mph from East

Location: Bergen / Florida

Current Time: Aug 30, 2014 at 10:50:42 PM

Latest Report: Aug 30, 2014 at 10:00 PM


Visibility: N/A

Pressure: 29.84 "Hg

Humidity: 65%

Dew point: 48 °F

Location of KnarvikLocation

Historic Weather in Knarvik — Graph

°F

Knarvik temperature yesterday

Maximum temperature yesterday: 65 °F (at 1:00 PM)
Minimum temperature yesterday: 51 °F (at 3:00 AM)
Average temperature yesterday: 57 °F

Past Weeks' High & Low Weather Summary

 TemperatureHumidityPressure
High69 °F (Aug 27, 5:00 PM)90% (Aug 18, 5:00 AM)29.98 "Hg (Aug 18, 5:00 AM)
Low49 °F (Aug 24, 5:00 AM)43% (Aug 30, 3:00 PM)29.18 "Hg (Aug 18, 11:00 AM)
Average57 °F75%29.67 "Hg
* Reported Aug 15 9:00 PM — Aug 30 9:00 PM, Knarvik, Weather by CustomWeather, © 2014

Note: Actual official high and low records may vary slightly from our data, if they occured in-between our weather recording intervals... More about our weather records

Advertising

Knarvik weather history for previous 24 hours

 ConditionsComfort  
Time TempWeatherWind HumidityBarometerVisibility
9:00 PM
Aug 30
63 °FMild.10 mph53%29.82 "HgN/A
8:00 PM63 °FOvercast.10 mph54%29.81 "Hg25 mi
7:00 PM62 °FCool.7 mph61%29.81 "HgN/A
6:00 PM62 °FCool.2 mph67%29.81 "HgN/A
5:00 PM65 °FOvercast.6 mph52%29.80 "Hg25 mi
4:00 PM67 °FMild.5 mph44%29.78 "HgN/A
3:00 PM68 °FMild.7 mph43%29.77 "HgN/A
2:00 PM67 °FPartly sunny.6 mph47%29.77 "Hg31 mi
1:00 PM68 °FMild.7 mph46%29.77 "HgN/A
12:00 PM67 °FMild.7 mph47%29.77 "HgN/A
11:00 AM66 °FOvercast.6 mph49%29.77 "Hg25 mi
10:00 AM63 °FMild.7 mph58%29.78 "HgN/A
9:00 AM59 °FCool.1 mph74%29.78 "HgN/A
8:00 AM58 °FOvercast.2 mph71%29.78 "Hg25 mi
7:00 AM57 °FCool.1 mph70%29.78 "HgN/A
6:00 AM60 °FCool.7 mph61%29.78 "HgN/A
5:00 AM59 °FCool.6 mph65%29.79 "HgN/A
4:00 AM59 °FCool.7 mph67%29.80 "HgN/A
3:00 AM55 °FCool.2 mph86%29.82 "HgN/A
2:00 AM55 °FCool.1 mph87%29.83 "HgN/A
1:00 AM55 °FCool.1 mph87%29.84 "HgN/A
12:00 AM56 °FCool.1 mph85%29.84 "HgN/A
11:00 PM
Aug 29
56 °FLight rain. Overcast.1 mph83%29.84 "Hg9 mi
Weather by CustomWeather, © 2014

See weather overviewHow to use our weather pages